Location: Newark
(13.6797°N, 8.5297°E)
Time: 17:03:02
(UTC+00:00)

LightSail 2 - Pass Details

Date: 08 December 2019
Orbit: 704 x 719 km, 24.0° (Epoch: 25 January)

Event Time Altitude Azimuth Distance (km) Brightness Sun altitude
Rises 19:42:10 0° 291° (WNW) 3,087 9.0 -38.3°
Reaches altitude 10° 19:44:36 10° 291° (WNW) 2,165 8.1 -38.8°
Enters shadow 19:44:57 12° 292° (WNW) 2,034 7.9 -38.9°
